STARLINK-1094 (44941 NORAD) Tracking and Keplerian Element Data

This shows tracking and keplerian element data for the satellite.

Feedback or suggestion? Click here.




ElementValue
Catalog44941
NameSTARLINK-1094
Epoch Orbit2736
Epoch Day185.50001157
Epoch Year2020
RAAN282.5053
Inclination53.0011
Eccentricity0.0001533
Argument of Perigee108.1222
Mean Anonmoly274.6879
Mean Motion15.05586392
Decay Rate-0.00028447
L11 44941U 20001AD 20185.50001157 -.00028447 00000-0 -19407-2 0 9990
L22 44941 53.0011 282.5053 0001533 108.1222 274.6879 15.05586392 27362

Live tracking and technical data element details for STARLINK-1094 (NORAD 44941). STARLINK-1094 can be tracked NOW for your location showing map with azimuth and elevation plus other details from your city location.

Track the satellite on the map from your city or location and see movement details for azimuth, elevation, latitude, longitude, range, height, and movement on the map or in text.







IsCatalogInMostPopularTable: catalog: 44941, numindb: 38
Update: records affected: 1



GetName: 44941 STARLINK-1094

Hit Count: updated at: Fri, 03 Jul 2020 17:17:55 GMT